When you browse on this site, cookies collect data to enhance your experience and personalize the content and advertising you see.
Visit our Privacy Policy to learn more. By continuing to use the site, you agree to this use of cookies and data.

Hourly Weather Farim

Today, 12 July, Sunday

Time Temperature Precipitation Wind Pressure Humidity
00:00 +26°C° 0.4 mm 1 mps 757 mmHg 95%
01:00 +26°C° 0.4 mm 1 mps 756 mmHg 95%
02:00 +26°C° 0.4 mm 1 mps 756 mmHg 95%
03:00 +26°C° 0 mm 1 mps 756 mmHg 95%
04:00 +24°C° 0 mm 0 mps 756 mmHg 95%
05:00 +24°C° 0 mm 0 mps 757 mmHg 95%
06:00 +26°C° 1.4 mm 1 mps 757 mmHg 93%
07:00 +27°C° 1.4 mm 1 mps 757 mmHg 91%
08:00 +27°C° 1.4 mm 2 mps 757 mmHg 89%
09:00 +27°C° 2.8 mm 3 mps 757 mmHg 88%
10:00 +27°C° 2.8 mm 4 mps 758 mmHg 87%
11:00 +28°C° 2.8 mm 5 mps 758 mmHg 86%
12:00 +27°C° 2 mm 4 mps 758 mmHg 85%
13:00 +27°C° 2 mm 4 mps 757 mmHg 84%
14:00 +27°C° 2 mm 4 mps 757 mmHg 83%
15:00 +28°C° 0.1 mm 4 mps 757 mmHg 83%
16:00 +28°C° 0.1 mm 4 mps 757 mmHg 83%
17:00 +28°C° 0.1 mm 4 mps 757 mmHg 83%
18:00 +27°C° 0 mm 3 mps 758 mmHg 85%
19:00 +27°C° 0 mm 2 mps 758 mmHg 88%
20:00 +26°C° 0 mm 2 mps 759 mmHg 90%
21:00 +26°C° 0.8 mm 1 mps 759 mmHg 92%
22:00 +26°C° 0.8 mm 1 mps 760 mmHg 94%
23:00 +23°C° 0.8 mm 0 mps 760 mmHg 96%

Tomorrow, 13 July, Monday

Time Temperature Precipitation Wind Pressure Humidity
00:00 +25°C° 1.1 mm 1 mps 760 mmHg 96%
01:00 +25°C° 1.1 mm 1 mps 759 mmHg 97%
02:00 +25°C° 1.1 mm 1 mps 759 mmHg 97%
03:00 +25°C° 0 mm 1 mps 759 mmHg 97%
04:00 +25°C° 0 mm 1 mps 759 mmHg 97%
05:00 +23°C° 0 mm 0 mps 758 mmHg 98%
06:00 +24°C° 0 mm 0 mps 759 mmHg 94%
07:00 +26°C° 0 mm 1 mps 759 mmHg 91%
08:00 +27°C° 0 mm 1 mps 759 mmHg 88%
09:00 +29°C° 0.7 mm 1 mps 759 mmHg 83%
10:00 +30°C° 0.7 mm 1 mps 760 mmHg 79%
11:00 +31°C° 0.7 mm 1 mps 760 mmHg 74%
12:00 +31°C° 1.5 mm 1 mps 759 mmHg 76%
13:00 +31°C° 1.5 mm 2 mps 759 mmHg 77%
14:00 +30°C° 1.5 mm 2 mps 758 mmHg 78%
15:00 +30°C° 0.9 mm 2 mps 758 mmHg 80%
16:00 +29°C° 0.9 mm 3 mps 758 mmHg 81%
17:00 +29°C° 0.9 mm 3 mps 758 mmHg 83%
18:00 +28°C° 0 mm 3 mps 758 mmHg 86%
19:00 +27°C° 0 mm 2 mps 759 mmHg 89%
20:00 +26°C° 0 mm 2 mps 759 mmHg 93%
21:00 +26°C° 0.1 mm 2 mps 760 mmHg 93%
22:00 +26°C° 0.1 mm 1 mps 760 mmHg 94%
23:00 +25°C° 0.1 mm 1 mps 760 mmHg 95%

Day after tomorrow, 14 July, Tuesday

Time Temperature Precipitation Wind Pressure Humidity
00:00 +25°C° 0.2 mm 1 mps 759 mmHg 96%
01:00 +25°C° 0.2 mm 1 mps 759 mmHg 96%
02:00 +25°C° 0.2 mm 1 mps 759 mmHg 97%
03:00 +25°C° 0 mm 1 mps 759 mmHg 97%
04:00 +25°C° 0 mm 1 mps 758 mmHg 97%
05:00 +25°C° 0 mm 1 mps 758 mmHg 98%
06:00 +26°C° 0 mm 1 mps 759 mmHg 95%
07:00 +26°C° 0 mm 1 mps 759 mmHg 92%
08:00 +27°C° 0 mm 1 mps 759 mmHg 90%
09:00 +28°C° 0.2 mm 1 mps 759 mmHg 87%
10:00 +28°C° 0.2 mm 1 mps 759 mmHg 84%
11:00 +29°C° 0.2 mm 1 mps 759 mmHg 82%
12:00 +30°C° 0.3 mm 1 mps 758 mmHg 76%
13:00 +32°C° 0.3 mm 2 mps 757 mmHg 70%
14:00 +34°C° 0.3 mm 2 mps 757 mmHg 64%
15:00 +32°C° 0.4 mm 2 mps 756 mmHg 68%
16:00 +32°C° 0.4 mm 2 mps 756 mmHg 71%
17:00 +31°C° 0.4 mm 2 mps 755 mmHg 74%
18:00 +30°C° 0.3 mm 2 mps 756 mmHg 78%
19:00 +29°C° 0.3 mm 2 mps 756 mmHg 81%
20:00 +28°C° 0.3 mm 2 mps 757 mmHg 85%
21:00 +28°C° 0.1 mm 2 mps 757 mmHg 86%
22:00 +27°C° 0.1 mm 2 mps 757 mmHg 88%
23:00 +27°C° 0.1 mm 2 mps 757 mmHg 89%

15 July, Wednesday

Time Temperature Precipitation Wind Pressure Humidity
00:00 +26°C° 0.5 mm 2 mps 757 mmHg 91%
01:00 +26°C° 0.5 mm 2 mps 756 mmHg 93%
02:00 +26°C° 0.5 mm 2 mps 756 mmHg 95%
03:00 +26°C° 0 mm 2 mps 756 mmHg 95%
04:00 +26°C° 0 mm 1 mps 756 mmHg 95%
05:00 +26°C° 0 mm 1 mps 756 mmHg 94%
06:00 +26°C° 0 mm 1 mps 756 mmHg 93%
07:00 +26°C° 0 mm 1 mps 757 mmHg 91%
08:00 +27°C° 0 mm 1 mps 757 mmHg 90%
09:00 +28°C° 0 mm 2 mps 757 mmHg 84%
10:00 +29°C° 0 mm 2 mps 757 mmHg 79%
11:00 +29°C° 0 mm 2 mps 757 mmHg 73%
12:00 +31°C° 0 mm 2 mps 756 mmHg 69%
13:00 +32°C° 0 mm 2 mps 756 mmHg 64%
14:00 +34°C° 0 mm 2 mps 755 mmHg 59%
15:00 +32°C° 0 mm 2 mps 755 mmHg 60%
16:00 +32°C° 0 mm 2 mps 755 mmHg 62%
17:00 +32°C° 0 mm 2 mps 755 mmHg 64%
18:00 +30°C° 0 mm 2 mps 756 mmHg 70%
19:00 +29°C° 0 mm 2 mps 757 mmHg 77%
20:00 +27°C° 0 mm 2 mps 757 mmHg 83%
21:00 +27°C° 0 mm 2 mps 758 mmHg 85%
22:00 +27°C° 0 mm 2 mps 758 mmHg 87%
23:00 +26°C° 0 mm 1 mps 758 mmHg 88%

16 July, Thursday

Time Temperature Precipitation Wind Pressure Humidity
00:00 +26°C° 0 mm 1 mps 758 mmHg 90%
01:00 +26°C° 0 mm 1 mps 757 mmHg 92%
02:00 +25°C° 0 mm 1 mps 757 mmHg 93%
03:00 +25°C° 0 mm 1 mps 757 mmHg 94%
04:00 +25°C° 0 mm 1 mps 758 mmHg 94%
05:00 +23°C° 0 mm 0 mps 758 mmHg 95%
06:00 +26°C° 0.1 mm 1 mps 758 mmHg 91%
07:00 +27°C° 0.1 mm 1 mps 759 mmHg 87%
08:00 +28°C° 0.1 mm 1 mps 759 mmHg 83%
09:00 +28°C° 0.3 mm 1 mps 759 mmHg 82%
10:00 +28°C° 0.3 mm 2 mps 759 mmHg 81%
11:00 +29°C° 0.3 mm 2 mps 759 mmHg 80%
12:00 +29°C° 0.8 mm 2 mps 758 mmHg 78%
13:00 +30°C° 0.8 mm 2 mps 758 mmHg 76%
14:00 +30°C° 0.8 mm 3 mps 758 mmHg 74%
15:00 +30°C° 1.3 mm 3 mps 758 mmHg 77%
16:00 +29°C° 1.3 mm 3 mps 758 mmHg 80%
17:00 +29°C° 1.3 mm 3 mps 757 mmHg 82%
18:00 +28°C° 0.6 mm 3 mps 758 mmHg 85%
19:00 +27°C° 0.6 mm 2 mps 759 mmHg 88%
20:00 +26°C° 0.6 mm 1 mps 760 mmHg 92%
21:00 +26°C° 0.5 mm 1 mps 760 mmHg 93%
22:00 +26°C° 0.5 mm 1 mps 760 mmHg 94%
23:00 +26°C° 0.5 mm 1 mps 760 mmHg 95%

17 July, Friday

Time Temperature Precipitation Wind Pressure Humidity
00:00 +26°C° 0.2 mm 1 mps 759 mmHg 95%
01:00 +26°C° 0.2 mm 1 mps 759 mmHg 95%
02:00 +25°C° 0.2 mm 1 mps 759 mmHg 95%
03:00 +26°C° 0.3 mm 1 mps 759 mmHg 94%
04:00 +26°C° 0.3 mm 1 mps 759 mmHg 94%
05:00 +24°C° 0.3 mm 0 mps 758 mmHg 94%
06:00 +26°C° 0.6 mm 1 mps 759 mmHg 92%
07:00 +27°C° 0.6 mm 1 mps 759 mmHg 91%
08:00 +27°C° 0.6 mm 1 mps 759 mmHg 90%
09:00 +27°C° 1.8 mm 1 mps 759 mmHg 89%
10:00 +28°C° 1.8 mm 1 mps 759 mmHg 89%
11:00 +28°C° 1.8 mm 1 mps 759 mmHg 88%
12:00 +27°C° 1.8 mm 1 mps 759 mmHg 90%
13:00 +27°C° 1.8 mm 1 mps 759 mmHg 91%
14:00 +27°C° 1.8 mm 2 mps 758 mmHg 93%
15:00 +26°C° 1.4 mm 2 mps 758 mmHg 93%
16:00 +26°C° 1.4 mm 2 mps 758 mmHg 94%
17:00 +26°C° 1.4 mm 3 mps 758 mmHg 94%
18:00 +26°C° 0.2 mm 2 mps 758 mmHg 95%
19:00 +26°C° 0.2 mm 2 mps 759 mmHg 96%
20:00 +25°C° 0.2 mm 2 mps 759 mmHg 96%
21:00 +25°C° 0 mm 1 mps 759 mmHg 97%
22:00 +25°C° 0 mm 1 mps 759 mmHg 97%
23:00 +25°C° 0 mm 1 mps 759 mmHg 98%
Show more